Weather History for Ann Arbor, MI

Change the Weather History Date:

Thursday, February 7, 2013

  Actual Average Record
Temperature  
Mean Temperature 32 °F -  
Max Temperature 39 °F 30 °F 46 °F (2009)
Min Temperature 24 °F 15 °F -4 °F (2007)
Degree Days  
Heating Degree Days 34    
Moisture  
Dew Point 23 °F    
Average Humidity 74    
Maximum Humidity 88    
Minimum Humidity 62    
Precipitation  
Precipitation 0.01 in - - ()
Sea Level Pressure  
Sea Level Pressure 30.11 in    
Wind  
Wind Speed 5 mph (East)    
Max Wind Speed 12 mph    
Max Gust Speed 17 mph    
Visibility 9 miles    
Events Rain    
Averages and records for this station are not official NWS values.
T = Trace of Precipitation, MM = Missing Value Source: NWS Daily Summary

Daily Weather History Graph

Daily Weather History Graph

Search for Another Location

Airport:

Trip Planner

Search our weather history database for the weather conditions in past years. The results will help you decide how hot, cold, wet, or windy it might be!

Date:

Astronomy

Feb. 07, 2013 Rise Set
Actual Time 7:41 AM EST 5:57 PM EST
Civil Twilight 7:11 AM EST 6:26 PM EST
Nautical Twilight 6:38 AM EST 7:00 PM EST
Astronomical Twilight 6:06 AM EST 7:32 PM EST
Moon 5:21 AM EST (2/7) 3:19 PM EST (2/7)
Length of Visible Light 11h 14m
Length of Day
10h 16m
Waning Crescent, 9% of the Moon is Illuminated
Feb 7
Waning Crescent
Feb 10
New
Feb 17
First Quarter
Feb 25
Full
Mar 4
Last Quarter

Hourly Weather History & Observations

Time (EST) Temp. Windchill Dew Point Humidity Pressure Visibility Wind Dir Wind Speed Gust Speed Precip Events Conditions
12:53 AM 24.1 °F - 16.0 °F 71% 30.30 in 10.0 mi Calm Calm - N/A   Mostly Cloudy
1:53 AM 24.1 °F 18.2 °F 18.0 °F 77% 30.28 in 10.0 mi ESE 4.6 mph - N/A   Overcast
2:53 AM 25.0 °F 18.1 °F 19.0 °F 78% 30.27 in 10.0 mi SE 5.8 mph - N/A   Overcast
3:53 AM 25.0 °F - 19.0 °F 78% 30.27 in 10.0 mi Calm Calm - N/A   Overcast
4:53 AM 26.1 °F 18.4 °F 19.0 °F 75% 30.25 in 10.0 mi East 6.9 mph - N/A   Overcast
5:53 AM 26.1 °F 19.4 °F 19.0 °F 75% 30.25 in 10.0 mi ESE 5.8 mph - N/A   Overcast
6:53 AM 26.1 °F 18.4 °F 19.9 °F 78% 30.24 in 10.0 mi ESE 6.9 mph - N/A   Overcast
7:53 AM 27.0 °F 19.5 °F 21.0 °F 78% 30.23 in 10.0 mi SE 6.9 mph - N/A   Overcast
8:53 AM 27.0 °F 20.5 °F 21.9 °F 81% 30.22 in 8.0 mi SE 5.8 mph - N/A   Overcast
10:53 AM 30.9 °F 26.2 °F 23.0 °F 72% 30.19 in 8.0 mi ESE 4.6 mph - N/A   Overcast
11:53 AM 34.0 °F 27.2 °F 24.1 °F 67% 30.17 in 9.0 mi East 8.1 mph - N/A   Clear
12:53 PM 35.1 °F 28.6 °F 25.0 °F 67% 30.13 in 9.0 mi East 8.1 mph - N/A   Clear
1:53 PM 37.0 °F 31.6 °F 26.1 °F 65% 30.09 in 10.0 mi East 6.9 mph - N/A   Partly Cloudy
2:53 PM 37.9 °F 32.1 °F 27.0 °F 65% 30.06 in 10.0 mi East 8.1 mph - N/A   Clear
3:53 PM 39.0 °F 31.8 °F 27.0 °F 62% 30.02 in 10.0 mi East 11.5 mph - N/A   Partly Cloudy
4:53 PM 36.0 °F 29.6 °F 27.0 °F 70% 30.00 in 9.0 mi East 8.1 mph - N/A   Clear
5:53 PM 34.0 °F 26.0 °F 26.1 °F 73% 30.00 in 8.0 mi ESE 10.4 mph - N/A   Partly Cloudy
6:53 PM 32.0 °F 24.2 °F 25.0 °F 75% 29.99 in 10.0 mi East 9.2 mph - N/A   Scattered Clouds
7:53 PM 30.9 °F 22.8 °F 25.0 °F 79% 29.96 in 10.0 mi East 9.2 mph - N/A   Mostly Cloudy
8:53 PM 30.9 °F 22.2 °F 24.1 °F 76% 29.94 in 10.0 mi East 10.4 mph - N/A   Overcast
9:53 PM 30.9 °F 24.3 °F 24.1 °F 76% 29.91 in 10.0 mi ENE 6.9 mph 17.3 mph N/A   Overcast
10:53 PM 30.9 °F 22.8 °F 23.0 °F 72% 29.89 in 10.0 mi ENE 9.2 mph - N/A   Overcast
11:53 PM 30.0 °F 20.5 °F 27.0 °F 88% 29.86 in 4.0 mi ENE 11.5 mph 17.3 mph 0.01 in Rain Light Freezing Rain